When you browse on this site, cookies collect data to enhance your experience and personalize the content and advertising you see.
Visit our Privacy Policy to learn more. By continuing to use the site, you agree to this use of cookies and data.

Hourly Weather Lezhe

Today, 20 September, Sunday

Time Temperature Precipitation Wind Pressure Humidity
00:00 +21°C° 0 mm 2 mps 738 mmHg 56%
01:00 +21°C° 0 mm 2 mps 738 mmHg 57%
02:00 +20°C° 0 mm 2 mps 738 mmHg 59%
03:00 +20°C° 0 mm 2 mps 738 mmHg 61%
04:00 +19°C° 0 mm 2 mps 738 mmHg 63%
05:00 +20°C° 0 mm 2 mps 738 mmHg 60%
06:00 +21°C° 0 mm 2 mps 738 mmHg 57%
07:00 +23°C° 0 mm 2 mps 738 mmHg 54%
08:00 +25°C° 0 mm 2 mps 738 mmHg 48%
09:00 +28°C° 0 mm 1 mps 738 mmHg 42%
10:00 +30°C° 0 mm 1 mps 738 mmHg 36%
11:00 +31°C° 0 mm 2 mps 737 mmHg 34%
12:00 +31°C° 0 mm 3 mps 737 mmHg 32%
13:00 +33°C° 0 mm 3 mps 737 mmHg 30%
14:00 +31°C° 0 mm 3 mps 736 mmHg 33%
15:00 +30°C° 0 mm 3 mps 736 mmHg 36%
16:00 +29°C° 0 mm 2 mps 736 mmHg 38%
17:00 +27°C° 0 mm 2 mps 736 mmHg 47%
18:00 +24°C° 0 mm 1 mps 737 mmHg 56%
19:00 +22°C° 0 mm 1 mps 737 mmHg 64%
20:00 +22°C° 0 mm 1 mps 737 mmHg 62%
21:00 +21°C° 0 mm 1 mps 737 mmHg 60%
22:00 +21°C° 0 mm 1 mps 738 mmHg 58%
23:00 +21°C° 0 mm 1 mps 738 mmHg 57%

Tomorrow, 21 September, Monday

Time Temperature Precipitation Wind Pressure Humidity
00:00 +20°C° 0 mm 1 mps 737 mmHg 57%
01:00 +20°C° 0 mm 1 mps 737 mmHg 57%
02:00 +20°C° 0 mm 1 mps 737 mmHg 57%
03:00 +19°C° 0 mm 1 mps 737 mmHg 58%
04:00 +19°C° 0 mm 1 mps 737 mmHg 58%
05:00 +20°C° 0 mm 1 mps 738 mmHg 54%
06:00 +21°C° 0 mm 1 mps 738 mmHg 50%
07:00 +23°C° 0 mm 1 mps 738 mmHg 46%
08:00 +25°C° 0 mm 1 mps 738 mmHg 41%
09:00 +28°C° 0 mm 1 mps 738 mmHg 36%
10:00 +30°C° 0 mm 1 mps 738 mmHg 31%
11:00 +30°C° 0 mm 2 mps 738 mmHg 31%
12:00 +31°C° 0 mm 3 mps 738 mmHg 31%
13:00 +31°C° 0 mm 3 mps 737 mmHg 32%
14:00 +30°C° 0 mm 3 mps 737 mmHg 36%
15:00 +29°C° 0 mm 2 mps 737 mmHg 40%
16:00 +28°C° 0 mm 2 mps 737 mmHg 45%
17:00 +26°C° 0 mm 1 mps 737 mmHg 55%
18:00 +24°C° 0 mm 1 mps 737 mmHg 65%
19:00 +21°C° 0 mm 1 mps 737 mmHg 74%
20:00 +21°C° 0 mm 1 mps 738 mmHg 76%
21:00 +21°C° 0 mm 1 mps 738 mmHg 77%
22:00 +20°C° 0 mm 1 mps 738 mmHg 78%
23:00 +20°C° 0 mm 1 mps 738 mmHg 78%

Day after tomorrow, 22 September, Tuesday

Time Temperature Precipitation Wind Pressure Humidity
00:00 +20°C° 0 mm 1 mps 738 mmHg 79%
01:00 +20°C° 0 mm 1 mps 738 mmHg 79%
02:00 +20°C° 0 mm 1 mps 738 mmHg 78%
03:00 +20°C° 0 mm 1 mps 738 mmHg 77%
04:00 +20°C° 0 mm 1 mps 738 mmHg 76%
05:00 +21°C° 0.2 mm 1 mps 738 mmHg 71%
06:00 +22°C° 0.2 mm 1 mps 738 mmHg 66%
07:00 +23°C° 0.2 mm 1 mps 738 mmHg 62%
08:00 +25°C° 0 mm 1 mps 738 mmHg 54%
09:00 +27°C° 0 mm 1 mps 738 mmHg 47%
10:00 +29°C° 0 mm 1 mps 738 mmHg 40%
11:00 +30°C° 0 mm 2 mps 738 mmHg 40%
12:00 +30°C° 0 mm 3 mps 737 mmHg 40%
13:00 +30°C° 0 mm 4 mps 737 mmHg 40%
14:00 +29°C° 0.2 mm 4 mps 737 mmHg 46%
15:00 +28°C° 0.2 mm 3 mps 737 mmHg 51%
16:00 +27°C° 0.2 mm 3 mps 736 mmHg 57%
17:00 +25°C° 0.2 mm 2 mps 737 mmHg 65%
18:00 +23°C° 0.2 mm 2 mps 737 mmHg 74%
19:00 +21°C° 0.2 mm 1 mps 737 mmHg 82%
20:00 +21°C° 0.1 mm 1 mps 737 mmHg 81%
21:00 +21°C° 0.1 mm 1 mps 737 mmHg 81%
22:00 +20°C° 0.1 mm 1 mps 737 mmHg 81%
23:00 +19°C° 0.1 mm 2 mps 737 mmHg 80%

23 September, Wednesday

Time Temperature Precipitation Wind Pressure Humidity
00:00 +19°C° 0.1 mm 2 mps 737 mmHg 79%
01:00 +19°C° 0.1 mm 2 mps 737 mmHg 78%
02:00 +19°C° 0 mm 2 mps 737 mmHg 77%
03:00 +19°C° 0 mm 2 mps 737 mmHg 76%
04:00 +19°C° 0 mm 2 mps 736 mmHg 75%
05:00 +20°C° 0 mm 2 mps 736 mmHg 71%
06:00 +22°C° 0 mm 1 mps 737 mmHg 68%
07:00 +23°C° 0 mm 1 mps 737 mmHg 65%
08:00 +25°C° 0 mm 1 mps 736 mmHg 57%
09:00 +27°C° 0 mm 1 mps 736 mmHg 50%
10:00 +29°C° 0 mm 2 mps 736 mmHg 42%
11:00 +29°C° 0.2 mm 2 mps 736 mmHg 43%
12:00 +29°C° 0.2 mm 3 mps 735 mmHg 43%
13:00 +29°C° 0.2 mm 4 mps 735 mmHg 43%
14:00 +28°C° 1.3 mm 4 mps 735 mmHg 51%
15:00 +27°C° 1.3 mm 3 mps 735 mmHg 58%
16:00 +26°C° 1.3 mm 3 mps 734 mmHg 65%
17:00 +24°C° 1.2 mm 3 mps 735 mmHg 72%
18:00 +23°C° 1.2 mm 2 mps 735 mmHg 78%
19:00 +20°C° 1.2 mm 2 mps 735 mmHg 85%
20:00 +20°C° 0.9 mm 2 mps 735 mmHg 85%
21:00 +20°C° 0.9 mm 2 mps 735 mmHg 85%
22:00 +20°C° 0.9 mm 2 mps 736 mmHg 85%
23:00 +20°C° 0.6 mm 2 mps 736 mmHg 84%

24 September, Thursday

Time Temperature Precipitation Wind Pressure Humidity
00:00 +21°C° 0.6 mm 1 mps 735 mmHg 84%
01:00 +21°C° 0.6 mm 1 mps 735 mmHg 83%
02:00 +20°C° 0.2 mm 1 mps 735 mmHg 83%
03:00 +20°C° 0.2 mm 1 mps 735 mmHg 83%
04:00 +20°C° 0.2 mm 1 mps 735 mmHg 82%
05:00 +21°C° 0.4 mm 1 mps 736 mmHg 80%
06:00 +21°C° 0.4 mm 1 mps 736 mmHg 78%
07:00 +22°C° 0.4 mm 1 mps 736 mmHg 75%
08:00 +23°C° 0.4 mm 2 mps 736 mmHg 70%
09:00 +25°C° 0.4 mm 2 mps 736 mmHg 64%
10:00 +26°C° 0.4 mm 2 mps 736 mmHg 58%
11:00 +27°C° 0.6 mm 2 mps 736 mmHg 57%
12:00 +27°C° 0.6 mm 3 mps 736 mmHg 56%
13:00 +27°C° 0.6 mm 3 mps 736 mmHg 56%
14:00 +27°C° 0.3 mm 3 mps 736 mmHg 57%
15:00 +26°C° 0.3 mm 2 mps 736 mmHg 59%
16:00 +26°C° 0.3 mm 2 mps 736 mmHg 61%
17:00 +24°C° 0 mm 2 mps 736 mmHg 68%
18:00 +23°C° 0 mm 1 mps 736 mmHg 74%
19:00 +21°C° 0 mm 1 mps 736 mmHg 80%
20:00 +21°C° 0 mm 1 mps 737 mmHg 80%
21:00 +20°C° 0 mm 1 mps 737 mmHg 81%
22:00 +20°C° 0 mm 1 mps 737 mmHg 81%
23:00 +20°C° 0 mm 1 mps 737 mmHg 81%

25 September, Friday

Time Temperature Precipitation Wind Pressure Humidity
00:00 +19°C° 0 mm 1 mps 737 mmHg 82%
01:00 +18°C° 0 mm 2 mps 736 mmHg 82%
02:00 +18°C° 0 mm 2 mps 736 mmHg 81%
03:00 +18°C° 0 mm 2 mps 736 mmHg 81%
04:00 +18°C° 0 mm 2 mps 736 mmHg 80%
05:00 +19°C° 0 mm 2 mps 735 mmHg 75%
06:00 +20°C° 0 mm 2 mps 735 mmHg 71%
07:00 +21°C° 0 mm 2 mps 735 mmHg 66%
08:00 +24°C° 0 mm 2 mps 735 mmHg 58%
09:00 +26°C° 0 mm 2 mps 735 mmHg 51%
10:00 +28°C° 0 mm 3 mps 735 mmHg 43%
11:00 +26°C° 0.2 mm 3 mps 734 mmHg 52%
12:00 +25°C° 0.2 mm 3 mps 733 mmHg 60%
13:00 +24°C° 0.2 mm 3 mps 733 mmHg 69%
14:00 +23°C° 1 mm 4 mps 732 mmHg 71%
15:00 +23°C° 1 mm 4 mps 732 mmHg 73%
16:00 +23°C° 1 mm 4 mps 732 mmHg 75%
17:00 +22°C° 1.2 mm 4 mps 731 mmHg 78%
18:00 +21°C° 1.2 mm 4 mps 731 mmHg 81%
19:00 +20°C° 1.2 mm 4 mps 731 mmHg 85%
20:00 +20°C° 1.3 mm 4 mps 731 mmHg 86%
21:00 +19°C° 1.3 mm 3 mps 731 mmHg 88%
22:00 +19°C° 1.3 mm 3 mps 731 mmHg 90%
23:00 +19°C° 1.6 mm 4 mps 730 mmHg 90%
Show more